Regional Weather Roundup
Issued by NWS

Home | Current Version | Previous Version | Text Only | Print | Product List | Glossary Off
Versions: 1 2 3 4 5 6 7 8 9 10 11 12 13 14 15 16 17 18 19 20 21 22 23 24 25 26 27 28 29 30 31 32 33 34 35 36 37 38 39 40 41 42 43 44 45 46 47 48 49 50

000
ASUS43 KDMX 301201
RWRIA

WEATHER ROUNDUP FOR IOWA
NATIONAL WEATHER SERVICE DES MOINES IA
700 AM CDT SUN APR 30 2017

NOTE: "FAIR" INDICATES FEW OR NO CLOUDS BELOW 12,000 FEET WITH NO
SIGNIFICANT WEATHER AND/OR OBSTRUCTIONS TO VISIBILITY.

* - THESE STATIONS ARE NOT NWS STATIONS...THUS NOT UNDER NWS
QUALITY CONTROL.  THEY ALSO DO NOT REPORT WEATHER SUCH
AS PRECIPITATION OR FOG.

IAZ001>003-012>014-020>022-031>034-043>046-301300-
   NORTHWEST IOWA

CITY           SKY/WX    TMP DP  RH WIND       PRES   REMARKS
CARROLL *      CLOUDY    37  37 100 NE23G30   29.81F WCI  26
CHEROKEE *     LGT RAIN  38  38  99 NE14G21   29.89F WCI  30
DENISON *      CLOUDY    37  37 100 NE17G29   29.81F WCI  28
ORANGE CITY *  LGT RAIN  37  37 100 NE9G17    29.90F WCI  31
SHELDON *      RAIN      39  36  87 NE16      29.91F WCI  30
SIOUX CITY     LGT RAIN  39  37  92 NE20G29   29.87F WCI  29
6HR MIN TEMP:  39; 6HR MAX TEMP:  46; 6HR PCP:  0.08;

SPENCER        LGT RAIN  39  36  89 NE20      29.93F WCI  29
6HR MIN TEMP:  39; 6HR MAX TEMP:  46; 6HR PCP:  0.14;

STORM LAKE *   CLOUDY    37  36  93 NE23G32   29.87F WCI  26
$$

IAZ055>058-069>071-079>083-090>094-301300-
   SOUTHWEST IOWA

CITY           SKY/WX    TMP DP  RH WIND       PRES   REMARKS
ATLANTIC *     CLOUDY    39  37  93 NE24G31   29.74F WCI  28
AUDUBON *      CLOUDY    37  36  93 NE21G26   29.79F WCI  27
CLARINDA *     CLOUDY    41  41 100 NE18      29.71F
COUNCIL BLFS * CLOUDY    37  37 100 NE21G29   29.76R WCI  27
CRESTON *      CLOUDY    39  39 100 NE26G33   29.71F FOG     WCI  28
HARLAN  *      CLOUDY    39  37  93 NE21G29   29.80F WCI  29
LAMONI         CLOUDY    41  40  96 NE18G29   29.69F FOG
6HR MIN TEMP:  40; 6HR MAX TEMP:  41; 6HR PCP:  0.01;

RED OAK *      CLOUDY    41  39  93 NE23      29.72R
SHENANDOAH *   CLOUDY    41  39  93 NE22G31   29.70F
$$

IAZ047>049-059>061-072>074-084-301300-
   CENTRAL IOWA

CITY           SKY/WX    TMP DP  RH WIND       PRES   REMARKS
AMES           CLOUDY    40  40 100 NE15G24   29.81F WCI  32
6HR MIN TEMP:  39; 6HR MAX TEMP:  41; 6HR PCP:  0.16;

ANKENY *       CLOUDY    41  39  93 NE14G23   29.81F
BOONE *        LGT RAIN  39  39 100 NE20G30   29.79F WCI  30
CHARITON *     CLOUDY    41  41 100 NE15G24   29.73F FOG
DES MOINES     CLOUDY    41  39  93 NE20      29.78F
6HR MIN TEMP:  41; 6HR MAX TEMP:  41; 6HR PCP:  0.01;

GRINNELL*      CLOUDY    40  39  95 NE21G29   29.80F FOG     WCI  30
KNOXVILLE *    CLOUDY    41  39  93 NE17      29.75F
MARSHALLTOWN   CLOUDY    40  39  97 NE20G29   29.83F WCI  30
6HR MIN TEMP:  39; 6HR MAX TEMP:  40; 6HR PCP:  0.03;

NEWTON *       CLOUDY    41  39  93 NE16G29   29.78F
PELLA *        CLOUDY    41  40  97 E7G17     29.80S
PERRY *        CLOUDY    39  38  96 NE15G22   29.80F WCI  31
$$

IAZ004>006-015-016-023>025-035-036-301300-
   NORTH CENTRAL IOWA

CITY           SKY/WX    TMP DP  RH WIND       PRES   REMARKS
ALGONA *       MIX PCPN  37  37 100 NE16G25   29.91F WCI  28
CLARION *      CLOUDY    37  37 100 NE17      29.88F FOG     WCI  28
ESTHERVILLE    LGT RAIN  38  36  92 NE22      29.94F WCI  27
6HR MIN TEMP:  38; 6HR MAX TEMP:  44; 6HR PCP:  0.12;

FORT DODGE *   CLOUDY    37  34  87 NE14G20   29.86F WCI  29
MASON CITY     CLOUDY    39  33  79 NE16      29.91F WCI  30
6HR MIN TEMP:  39; 6HR MAX TEMP:  42; 6HR PCP:  0.03;

FOREST CITY *  RAIN      37  32  81 NE12G17   29.91F WCI  30
WEBSTER CITY * MIX PCPN  39  37  93 NE18      29.83F WCI  30
IOWA FALLS *   CLOUDY    39  37  92 NE16      29.85F FOG     WCI  30
$$

IAZ007>011-017>019-026>030-037>042-050>054-066-301300-
   NORTHEAST IOWA

CITY           SKY/WX    TMP DP  RH WIND       PRES   REMARKS
CEDAR RAPIDS   CLOUDY    41  41 100 NE21      29.79F
6HR MIN TEMP:  40; 6HR MAX TEMP:  41;

CHARLES CITY * MIX PCPN  41  36  81 NE21      29.89F
CLINTON *      CLOUDY    42  40  92 E22       29.81F
DECORAH *      CLOUDY    41  34  75 NE15G21   29.91F
DUBUQUE        CLOUDY    39  38  96 NE16G25   29.85F FOG     WCI  30
6HR MIN TEMP:  38; 6HR MAX TEMP:  41;

MONTICELLO *   CLOUDY    41  39  93 NE10G24   29.84F
OELWEIN *      CLOUDY    41  39  93 NE22G30   29.85F
WATERLOO       CLOUDY    41  37  86 E16G28    29.85F
6HR MIN TEMP:  39; 6HR MAX TEMP:  42; 6HR PCP:  0.01;

$$

IAZ064-065-067-068-078-301300-
   EAST CENTRAL IOWA

CITY           SKY/WX    TMP DP  RH WIND       PRES   REMARKS
DAVENPORT      CLOUDY    42  40  92 E24G32    29.79F
6HR MIN TEMP:  42; 6HR MAX TEMP:  44;

IOWA CITY      CLOUDY    44  41  89 NE14G22   29.81F
6HR MIN TEMP:  42; 6HR MAX TEMP:  44;

MUSCATINE *    CLOUDY    45  43  93 NE15G25   29.80S
QUAD CITIES    CLOUDY    44  41  89 NE23G32   29.76F
6HR MIN TEMP:  43; 6HR MAX TEMP:  45; 6HR PCP:  0.01;

$$

IAZ062-063-075>077-085>089-095>099-301300-
   SOUTHEAST IOWA

CITY           SKY/WX    TMP DP  RH WIND       PRES   REMARKS
BURLINGTON     CLOUDY    45  45 100 NE16      29.74R
6HR MIN TEMP:  42; 6HR MAX TEMP:  45; 6HR PCP:  0.03;

FAIRFIELD *    CLOUDY    43  43 100 NE21G28   29.77F FOG
FORT MADISON * LGT RAIN  45  45 100 NE17G26   29.70F
KEOKUK *       CLOUDY    46  45  93 W12       29.78R FOG
OSKALOOSA *    CLOUDY    41  41  97 NE15      29.78R
OTTUMWA        CLOUDY    43  43 100 E16       29.77F
6HR MIN TEMP:  41; 6HR MAX TEMP:  43; 6HR PCP:  0.02;

WASHINGTON *   CLOUDY    43  43 100 NE21      29.77F FOG
$$

ABBREVIATIONS USED IN REMARKS
   TC - TEMPERATURES IN CELSIUS
  WCI - WIND CHILL INDEX
   HX - HEAT INDEX
  VSB - VISIBILITY
$$





USA.gov is the U.S. government's official web portal to all federal, state and local government web resources and services.